Volver al catálogo

NAVSTAR 82

USA 343

ActivoNavegaciónHEO
NORAD 55268·PAYLOAD·🇺🇸 United States

Lanzado Jan 18, 2023 desde Cape Canaveral Space Force Station

Loading…

Próximos Pases (próximas 24 horas)

TLE

ActualizadoSource: CelesTrak SupGP

Época: Sep 17, 2026, 16:38 UTC

1 55268C 23009A   26260.69312500  .00000000  00000+0  00000+0 0  2601
2 55268  55.1291 144.8816 0005704 331.0538  31.4357  2.00565360    13

Sigue NAVSTAR 82 en tiempo real con AllMySat

Download on the App Store